Time,TemperatureF,DewpointF,PressureIn,WindDirection,WindDirectionDegrees,WindSpeedMPH,WindSpeedGustMPH,Humidity,HourlyPrecipIn,Conditions,Clouds,dailyrainin,SoftwareType,DateUTC
2013-03-15 00:26:00,32.3,28.0,30.15,WSW,240,3.0,4.0,84,0.00,,,0.00,weatherlink.com 1.10,2013-03-15 04:26:00,
2013-03-15 00:41:00,32.0,28.0,30.15,WSW,247,1.0,4.0,86,0.00,,,0.00,weatherlink.com 1.10,2013-03-15 04:41:00,
2013-03-15 00:56:00,31.6,28.0,30.14,WSW,250,2.0,4.0,87,0.00,,,0.00,weatherlink.com 1.10,2013-03-15 04:56:00,
2013-03-15 01:11:00,31.5,28.0,30.14,WSW,242,1.0,3.0,88,0.00,,,0.00,weatherlink.com 1.10,2013-03-15 05:11:00,
2013-03-15 01:26:00,31.3,28.0,30.15,West,277,1.0,2.0,88,0.00,,,0.00,weatherlink.com 1.10,2013-03-15 05:26:00,
2013-03-15 01:41:00,31.1,28.0,30.14,WSW,254,2.0,3.0,89,0.00,,,0.00,weatherlink.com 1.10,2013-03-15 05:41:00,
2013-03-15 01:56:00,31.1,29.0,30.13,WSW,237,1.0,3.0,90,0.00,,,0.00,weatherlink.com 1.10,2013-03-15 05:56:00,
2013-03-15 02:11:00,31.5,30.0,30.13,SW,235,2.0,3.0,92,0.00,,,0.00,weatherlink.com 1.10,2013-03-15 06:11:00,
2013-03-15 02:26:00,31.9,30.0,30.12,WSW,242,3.0,3.0,92,0.00,,,0.00,weatherlink.com 1.10,2013-03-15 06:26:00,
2013-03-15 02:41:00,32.0,30.0,30.12,WSW,258,3.0,6.0,92,0.00,,,0.00,weatherlink.com 1.10,2013-03-15 06:41:00,
2013-03-15 02:56:00,32.1,30.0,30.11,West,261,1.0,7.0,93,0.00,,,0.00,weatherlink.com 1.10,2013-03-15 06:56:00,
2013-03-15 03:11:00,32.3,31.0,30.10,WSW,243,3.0,6.0,93,0.00,,,0.00,weatherlink.com 1.10,2013-03-15 07:11:00,
2013-03-15 03:26:00,32.0,30.0,30.09,SW,236,3.0,4.0,92,0.00,,,0.00,weatherlink.com 1.10,2013-03-15 07:26:00,
2013-03-15 03:56:00,30.9,29.0,30.08,WSW,239,2.0,3.0,93,0.00,,,0.00,weatherlink.com 1.10,2013-03-15 07:56:00,
2013-03-15 04:11:00,30.7,29.0,30.07,WSW,239,2.0,3.0,93,0.00,,,0.00,weatherlink.com 1.10,2013-03-15 08:11:00,
2013-03-15 04:26:00,30.6,29.0,30.07,SW,220,2.0,3.0,93,0.00,,,0.00,weatherlink.com 1.10,2013-03-15 08:26:00,
2013-03-15 04:42:00,30.7,29.0,30.06,SW,231,2.0,4.0,93,0.00,,,0.00,weatherlink.com 1.10,2013-03-15 08:42:00,
2013-03-15 04:57:00,30.7,29.0,30.05,WSW,242,1.0,3.0,93,0.00,,,0.00,weatherlink.com 1.10,2013-03-15 08:57:00,
2013-03-15 05:12:00,30.8,29.0,30.05,SW,227,3.0,4.0,93,0.00,,,0.00,weatherlink.com 1.10,2013-03-15 09:12:00,
2013-03-15 05:27:00,30.8,29.0,30.04,WSW,240,2.0,4.0,93,0.00,,,0.00,weatherlink.com 1.10,2013-03-15 09:27:00,
2013-03-15 05:42:00,30.7,29.0,30.04,SW,234,2.0,3.0,93,0.00,,,0.00,weatherlink.com 1.10,2013-03-15 09:42:00,
2013-03-15 05:57:00,30.5,29.0,30.04,SW,232,2.0,3.0,93,0.00,,,0.00,weatherlink.com 1.10,2013-03-15 09:57:00,
2013-03-15 06:12:00,30.3,29.0,30.03,WSW,242,3.0,4.0,93,0.00,,,0.00,weatherlink.com 1.10,2013-03-15 10:12:00,
2013-03-15 06:27:00,30.2,29.0,30.02,SW,234,3.0,4.0,93,0.00,,,0.00,weatherlink.com 1.10,2013-03-15 10:27:00,
2013-03-15 06:42:00,30.1,28.0,30.01,SW,234,0.0,3.0,93,0.00,,,0.00,weatherlink.com 1.10,2013-03-15 10:42:00,
2013-03-15 06:57:00,29.9,28.0,30.00,SW,217,1.0,3.0,94,0.00,,,0.00,weatherlink.com 1.10,2013-03-15 10:57:00,
2013-03-15 07:12:00,29.8,28.0,30.00,SW,225,2.0,3.0,94,0.00,,,0.00,weatherlink.com 1.10,2013-03-15 11:12:00,
2013-03-15 07:27:00,29.6,28.0,30.00,WSW,237,2.0,3.0,94,0.00,,,0.00,weatherlink.com 1.10,2013-03-15 11:27:00,
2013-03-15 07:42:00,29.7,28.0,30.00,SW,236,2.0,3.0,94,0.00,,,0.00,weatherlink.com 1.10,2013-03-15 11:42:00,
2013-03-15 07:57:00,29.6,28.0,30.00,SW,233,2.0,3.0,94,0.00,,,0.00,weatherlink.com 1.10,2013-03-15 11:57:00,
2013-03-15 08:12:00,29.7,28.0,30.00,WSW,238,1.0,4.0,94,0.00,,,0.00,weatherlink.com 1.10,2013-03-15 12:12:00,
2013-03-15 08:27:00,29.8,28.0,30.00,WSW,242,2.0,3.0,94,0.00,,,0.00,weatherlink.com 1.10,2013-03-15 12:27:00,
2013-03-15 08:42:00,30.1,29.0,30.00,SW,232,2.0,4.0,94,0.00,,,0.00,weatherlink.com 1.10,2013-03-15 12:42:00,
2013-03-15 08:57:00,30.4,29.0,29.99,WSW,246,1.0,3.0,94,0.00,,,0.00,weatherlink.com 1.10,2013-03-15 12:57:00,
2013-03-15 09:12:00,31.0,30.0,29.99,SW,223,1.0,3.0,94,0.00,,,0.00,weatherlink.com 1.10,2013-03-15 13:12:00,
2013-03-15 09:27:00,31.5,30.0,29.99,WSW,247,3.0,4.0,93,0.00,,,0.00,weatherlink.com 1.10,2013-03-15 13:27:00,
2013-03-15 09:42:00,31.9,30.0,29.99,WSW,247,1.0,3.0,92,0.00,,,0.00,weatherlink.com 1.10,2013-03-15 13:42:00,
2013-03-15 09:57:00,32.5,30.0,29.98,SW,228,1.0,3.0,91,0.00,,,0.00,weatherlink.com 1.10,2013-03-15 13:57:00,
2013-03-15 10:12:00,33.5,31.0,29.97,WSW,242,2.0,4.0,90,0.00,,,0.00,weatherlink.com 1.10,2013-03-15 14:12:00,
2013-03-15 10:27:00,34.4,32.0,29.97,WSW,247,2.0,5.0,89,0.00,,,0.00,weatherlink.com 1.10,2013-03-15 14:27:00,
2013-03-15 10:42:00,35.2,32.0,29.98,West,265,3.0,3.0,88,0.00,,,0.00,weatherlink.com 1.10,2013-03-15 14:42:00,
2013-03-15 10:57:00,36.4,33.0,29.97,WSW,242,2.0,6.0,86,0.00,,,0.00,weatherlink.com 1.10,2013-03-15 14:57:00,
2013-03-15 11:12:00,36.8,32.0,29.97,WSW,243,1.0,5.0,84,0.00,,,0.00,weatherlink.com 1.10,2013-03-15 15:12:00,
2013-03-15 11:27:00,37.4,33.0,29.97,West,277,3.0,10.0,84,0.00,,,0.00,weatherlink.com 1.10,2013-03-15 15:27:00,
2013-03-15 11:43:00,38.0,33.0,29.96,West,269,4.0,7.0,83,0.00,,,0.00,weatherlink.com 1.10,2013-03-15 15:43:00,
2013-03-15 11:58:00,38.6,34.0,29.97,WSW,257,1.0,4.0,82,0.00,,,0.00,weatherlink.com 1.10,2013-03-15 15:58:00,
2013-03-15 12:13:00,39.1,34.0,29.96,WSW,254,2.0,6.0,81,0.00,,,0.00,weatherlink.com 1.10,2013-03-15 16:13:00,
2013-03-15 12:28:00,39.5,34.0,29.96,WSW,251,2.0,4.0,81,0.00,,,0.00,weatherlink.com 1.10,2013-03-15 16:28:00,
2013-03-15 12:43:00,40.4,34.0,29.95,South,190,4.0,5.0,79,0.00,,,0.00,weatherlink.com 1.10,2013-03-15 16:43:00,
2013-03-15 12:58:00,41.4,35.0,29.95,West,267,3.0,4.0,78,0.00,,,0.00,weatherlink.com 1.10,2013-03-15 16:58:00,
2013-03-15 13:13:00,42.1,35.0,29.94,West,269,2.0,3.0,77,0.00,,,0.00,weatherlink.com 1.10,2013-03-15 17:13:00,
2013-03-15 13:28:00,43.1,36.0,29.94,SW,232,3.0,5.0,75,0.00,,,0.00,weatherlink.com 1.10,2013-03-15 17:28:00,
2013-03-15 13:43:00,43.7,37.0,29.93,WSW,244,2.0,5.0,76,0.00,,,0.00,weatherlink.com 1.10,2013-03-15 17:43:00,
2013-03-15 13:58:00,44.5,36.0,29.92,NW,306,0.0,3.0,73,0.00,,,0.00,weatherlink.com 1.10,2013-03-15 17:58:00,
2013-03-15 14:13:00,45.8,37.0,29.92,West,271,2.0,4.0,71,0.00,,,0.00,weatherlink.com 1.10,2013-03-15 18:13:00,
2013-03-15 14:43:00,47.4,37.0,29.91,West,276,3.0,5.0,68,0.00,,,0.00,weatherlink.com 1.10,2013-03-15 18:43:00,
2013-03-15 14:58:00,46.7,37.0,29.91,West,267,4.0,8.0,69,0.00,,,0.00,weatherlink.com 1.10,2013-03-15 18:58:00,
2013-03-15 15:13:00,46.1,37.0,29.91,WNW,302,6.0,8.0,71,0.00,,,0.00,weatherlink.com 1.10,2013-03-15 19:13:00,
2013-03-15 15:28:00,46.2,37.0,29.90,WSW,239,2.0,5.0,71,0.00,,,0.00,weatherlink.com 1.10,2013-03-15 19:28:00,
2013-03-15 15:43:00,45.8,37.0,29.90,WSW,246,4.0,9.0,72,0.00,,,0.00,weatherlink.com 1.10,2013-03-15 19:43:00,
2013-03-15 15:58:00,45.8,37.0,29.89,WNW,285,3.0,5.0,72,0.00,,,0.00,weatherlink.com 1.10,2013-03-15 19:58:00,
2013-03-15 16:13:00,45.7,37.0,29.89,WSW,240,4.0,5.0,71,0.00,,,0.00,weatherlink.com 1.10,2013-03-15 20:13:00,
2013-03-15 16:28:00,45.6,37.0,29.89,WSW,252,2.0,7.0,72,0.00,,,0.00,weatherlink.com 1.10,2013-03-15 20:28:00,
2013-03-15 16:43:00,45.5,37.0,29.89,SW,229,1.0,7.0,73,0.00,,,0.00,weatherlink.com 1.10,2013-03-15 20:43:00,
2013-03-15 16:58:00,45.6,38.0,29.88,West,269,1.0,5.0,74,0.00,,,0.00,weatherlink.com 1.10,2013-03-15 20:58:00,
2013-03-15 17:28:00,45.1,38.0,29.88,West,264,1.0,4.0,77,0.00,,,0.00,weatherlink.com 1.10,2013-03-15 21:28:00,
2013-03-15 17:43:00,44.6,38.0,29.88,West,281,0.0,2.0,79,0.00,,,0.00,weatherlink.com 1.10,2013-03-15 21:43:00,
2013-03-15 17:58:00,44.0,39.0,29.88,WSW,242,1.0,2.0,81,0.00,,,0.00,weatherlink.com 1.10,2013-03-15 21:58:00,
2013-03-15 18:13:00,43.6,39.0,29.88,WSW,242,0.0,0.0,84,0.00,,,0.00,weatherlink.com 1.10,2013-03-15 22:13:00,
2013-03-15 18:28:00,43.3,40.0,29.88,WSW,242,0.0,0.0,87,0.01,,,0.01,weatherlink.com 1.10,2013-03-15 22:28:00,
2013-03-15 18:43:00,42.8,40.0,29.87,WSW,242,0.0,0.0,90,0.02,,,0.02,weatherlink.com 1.10,2013-03-15 22:43:00,
2013-03-15 18:58:00,42.3,40.0,29.87,WSW,242,0.0,0.0,91,0.03,,,0.03,weatherlink.com 1.10,2013-03-15 22:58:00,
2013-03-15 19:13:00,42.0,40.0,29.87,WSW,242,0.0,0.0,92,0.03,,,0.03,weatherlink.com 1.10,2013-03-15 23:13:00,
2013-03-15 19:29:00,41.8,40.0,29.86,WSW,242,0.0,0.0,93,0.03,,,0.04,weatherlink.com 1.10,2013-03-15 23:29:00,
2013-03-15 19:44:00,41.5,40.0,29.87,WSW,242,0.0,0.0,94,0.03,,,0.05,weatherlink.com 1.10,2013-03-15 23:44:00,
2013-03-15 19:59:00,41.3,40.0,29.86,WSW,242,0.0,0.0,95,0.03,,,0.06,weatherlink.com 1.10,2013-03-15 23:59:00,
2013-03-15 20:14:00,41.1,40.0,29.87,WSW,242,0.0,1.0,95,0.04,,,0.07,weatherlink.com 1.10,2013-03-16 00:14:00,
2013-03-15 20:29:00,41.0,40.0,29.87,WSW,242,0.0,0.0,95,0.08,,,0.12,weatherlink.com 1.10,2013-03-16 00:29:00,
2013-03-15 20:44:00,41.0,40.0,29.86,SW,225,0.0,1.0,95,0.09,,,0.14,weatherlink.com 1.10,2013-03-16 00:44:00,
2013-03-15 20:59:00,40.9,40.0,29.86,SW,225,0.0,0.0,96,0.09,,,0.15,weatherlink.com 1.10,2013-03-16 00:59:00,
2013-03-15 21:14:00,40.9,40.0,29.85,SW,225,0.0,0.0,96,0.09,,,0.16,weatherlink.com 1.10,2013-03-16 01:14:00,
2013-03-15 21:29:00,40.7,40.0,29.85,SW,225,0.0,2.0,96,0.05,,,0.17,weatherlink.com 1.10,2013-03-16 01:29:00,
2013-03-15 21:44:00,40.7,40.0,29.84,SSW,205,2.0,3.0,96,0.04,,,0.18,weatherlink.com 1.10,2013-03-16 01:44:00,
2013-03-15 21:59:00,40.6,40.0,29.84,SSW,210,0.0,3.0,96,0.04,,,0.19,weatherlink.com 1.10,2013-03-16 01:59:00,
2013-03-15 22:14:00,40.6,40.0,29.83,SSW,202,0.0,3.0,96,0.03,,,0.19,weatherlink.com 1.10,2013-03-16 02:14:00,
2013-03-15 22:29:00,40.5,40.0,29.82,South,173,0.0,2.0,96,0.02,,,0.19,weatherlink.com 1.10,2013-03-16 02:29:00,
2013-03-15 22:44:00,40.3,39.0,29.81,SW,219,0.0,2.0,96,0.01,,,0.19,weatherlink.com 1.10,2013-03-16 02:44:00,
2013-03-15 22:59:00,40.3,39.0,29.80,South,182,0.0,3.0,96,0.00,,,0.19,weatherlink.com 1.10,2013-03-16 02:59:00,
2013-03-15 23:14:00,40.2,39.0,29.80,SSW,209,0.0,1.0,96,0.00,,,0.19,weatherlink.com 1.10,2013-03-16 03:14:00,
2013-03-15 23:29:00,40.1,39.0,29.81,SSW,209,0.0,0.0,97,0.00,,,0.19,weatherlink.com 1.10,2013-03-16 03:29:00,
2013-03-15 23:44:00,39.9,39.0,29.82,SSW,209,0.0,0.0,97,0.00,,,0.19,weatherlink.com 1.10,2013-03-16 03:44:00,
2013-03-15 23:59:00,39.8,39.0,29.81,SSW,209,0.0,0.0,97,0.00,,,0.19,weatherlink.com 1.10,2013-03-16 03:59:00,